Lid_Strength_Index
2 4 4 5 7 8 10 10 9 9 7 6 5 6 8 6 7 10 2 0 -0 -0 -1 -1 -1 -1 -1 -1 -1 -1 -1 -1 -1 -1 -1 -1 -1 -1 -1 -1 -1 -1 -1 -1 -1 -1 -1 -1 -1
3 4 5 7 9 10 10 9 9 8 5 6 6 6 6 7 5 4 3 0 -0 -1 -1 -1 -1 -1 -1 -1 -1 -1 -1 -1 -1 -1 -1 -1 -1 -1 -1 -1 -1 -1 -1 -1 -1 -1 -1 -1 -1
4 5 5 8 11 10 10 9 8 7 6 7 8 7 7 8 7 3 1 0 -0 -0 -1 -1 -1 -1 -1 -1 -1 -1 -1 -1 -1 -1 -1 -1 -1 -1 -1 -1 -1 -1 -1 -1 -1 -1 -1 -1 -1
4 5 7 8 10 9 9 8 7 7 7 7 7 9 7 5 6 2 4 1 2 2 2 2 1 -1 -1 -1 -1 -1 -1 -1 -1 -1 -1 -1 -1 -1 -1 -1 -1 -1 -1 -1 -1 -1 -1 -1 -1
6 7 9 10 10 9 8 7 8 7 8 8 8 8 10 9 7 7 6 6 6 6 5 3 2 2 1 -1 -1 -1 -1 -1 -1 -1 -1 -1 -1 -1 -1 -1 -1 -1 -1 -1 -1 -1 -1 -1 -1
7 8 10 11 11 9 8 9 7 8 8 9 7 10 10 9 8 9 8 8 7 7 6 5 4 4 3 2 2 1 1 -0 -1 -1 -1 -1 -1 -1 -1 -1 -1 -1 -1 -1 -1 -1 -1 -1 -1
8 9 11 11 11 10 9 9 8 8 8 9 8 9 9 8 8 8 8 8 8 7 6 6 5 4 4 4 4 3 3 2 1 0 0 0 -0 -0 -0 -0 -1 -1 -1 -1 -1 -1 -0 -1 -0
8 8 11 11 11 11 10 10 10 9 10 8 7 8 8 8 7 7 7 7 7 8 7 7 7 6 5 5 5 5 5 4 4 4 3 1 0 -1 -1 -0 -0 -1 -1 -1 -1 -0 -0 -0 -0
8 9 10 10 11 10 10 10 9 9 9 9 8 9 6 5 5 5 5 5 5 5 6 5 5 5 4 4 4 3 3 4 4 5 5 4 1 -1 -1 -1 -0 -0 -0 -0 -0 -0 0 0 0
9 10 10 9 9 10 10 10 9 9 10 10 8 6 5 5 6 7 7 7 7 7 6 6 6 6 6 6 5 5 4 4 4 4 3 3 3 1 -0 -1 -0 -1 -0 -0 -0 0 0 0 -1
11 11 10 9 9 9 10 10 10 9 11 9 9 7 6 7 7 7 8 8 8 7 7 7 7 7 7 7 6 6 5 5 5 4 4 3 3 1 2 -0 -1 -1 -1 -1 -1 -1 -1 -1 -1
11 10 10 9 10 11 11 10 11 10 10 8 6 6 7 7 8 8 8 8 8 8 8 8 8 8 7 7 7 6 6 5 5 5 4 4 4 3 2 1 1 -1 -1 -1 -1 -1 -1 -1 -1
12 11 11 10 11 11 11 11 11 11 8 6 6 7 8 8 8 8 8 8 8 9 8 8 8 8 8 7 7 6 6 6 5 5 4 4 4 4 3 3 2 1 2 -0 -0 -0 -0 -0 -1
11 11 11 11 11 11 11 11 10 10 7 7 7 8 8 8 8 9 9 9 9 9 9 8 8 8 7 7 7 7 6 6 6 5 5 5 4 4 4 3 3 2 1 2 2 -0 -0 0 -0
11 12 11 11 11 11 10 12 11 8 8 8 8 9 9 9 9 9 9 10 10 10 9 9 8 7 7 7 7 7 6 6 6 6 6 5 5 4 4 4 4 3 3 2 3 4 -0 0 0
12 13 14 11 11 11 10 13 12 8 9 9 9 9 9 10 10 10 10 10 10 10 9 8 8 8 7 7 7 7 7 6 6 6 6 5 5 5 5 4 4 3 3 2 2 1 3 1 1
14 15 15 13 11 12 12 13 12 8 9 10 9 10 10 10 10 10 10 10 10 10 9 9 8 8 8 7 7 7 7 7 7 6 6 5 5 5 5 5 4 3 3 2 2 1 1 4 1
15 15 15 14 12 12 13 13 12 9 9 9 10 10 10 10 10 10 10 10 10 10 9 9 9 8 8 8 8 7 7 7 7 6 6 6 5 5 5 5 4 4 5 5 3 2 1 2 4
14 14 14 13 12 13 12 13 13 10 10 10 10 10 10 10 10 10 10 10 9 9 9 9 10 9 9 9 9 8 8 8 7 7 6 6 6 5 5 5 5 4 5 5 5 5 3 1 3
14 15 14 13 13 13 13 13 13 11 10 10 10 10 10 10 10 10 10 10 10 10 10 10 10 10 9 9 9 9 9 8 7 7 6 6 6 6 6 5 5 4 4 5 5 5 5 3 0
14 14 14 14 13 13 14 14 14 12 10 10 10 10 10 10 10 10 11 11 11 11 11 11 10 10 9 9 9 9 8 8 8 8 7 7 6 6 6 6 6 5 5 5 4 4 5 6 2
15 12 12 13 14 15 14 16 15 13 12 11 10 10 10 10 10 11 11 11 11 11 11 10 10 10 10 9 10 10 10 11 10 9 8 7 6 6 6 6 7 6 5 5 4 4 4 5 6
13 12 12 13 14 15 15 15 14 13 13 12 11 11 11 11 11 11 11 11 11 11 11 10 10 10 10 10 10 10 10 10 9 9 8 8 8 7 7 7 7 7 6 5 4 5 5 4 4
11 13 14 15 15 18 15 15 14 13 12 11 10 11 11 11 11 11 11 11 11 10 11 10 11 11 10 10 11 11 11 10 10 9 10 9 9 8 8 7 7 7 6 6 6 5 5 4 4
12 13 16 18 18 18 16 16 13 13 11 11 11 10 10 11 11 11 12 11 11 11 11 11 11 11 11 11 11 11 11 10 10 10 10 11 10 9 9 8 8 7 7 6 6 6 6 5 5
13 13 16 19 19 17 15 17 14 12 11 10 10 10 11 12 11 11 12 12 12 12 12 12 12 12 12 12 11 11 10 10 10 10 10 11 11 10 9 9 8 8 7 7 7 7 6 5 5
13 15 11 14 16 17 15 14 14 12 12 11 11 12 12 12 12 12 12 12 12 12 12 12 12 12 12 12 12 11 11 10 10 10 10 11 10 10 9 9 8 8 8 7 7 8 7 6 6
10 10 15 15 20 20 16 16 15 14 13 12 12 12 12 11 12 12 12 12 12 12 12 12 12 13 12 12 12 12 11 11 10 10 11 11 10 11 10 10 9 9 8 8 8 8 8 7 8
13 13 12 12 14 17 18 15 12 12 11 12 12 11 11 12 12 12 13 13 13 13 13 13 13 13 13 12 12 12 12 12 11 11 11 11 11 11 11 10 9 9 9 8 9 9 10 9 9
11 12 12 15 15 14 14 15 10 10 10 10 11 11 10 10 11 12 12 13 13 13 13 13 13 14 13 13 13 12 12 12 12 12 12 11 12 11 11 11 10 10 9 9 9 10 11 11 11